Regional Weather Roundup
Issued by NWS

Home | Current Version | Previous Version | Graphics & Text | Print | Product List | Glossary On
Versions: 1 2 3 4 5 6 7 8 9 10 11 12 13 14 15 16 17 18 19 20 21 22 23 24 25 26 27 28 29 30 31 32 33 34 35 36 37 38 39 40 41 42 43 44 45 46 47 48 49 50
000
ASUS43 KOAX 252110
RWRNE

WEATHER ROUNDUP FOR NEBRASKA
NATIONAL WEATHER SERVICE OMAHA NE
300 PM CST SUN FEB 25 2018

NOTES: SATELLITE DATA IS BEING USED TO AUGMENT CLOUD COVER ABOVE
       12000 FEET.
       "FAIR" INDICATES FEW OR NO CLOUDS BELOW 12,000 FEET WITH NO
       SIGNIFICANT WEATHER AND/OR OBSTRUCTIONS TO VISIBILITY.


NEZ001>004-019>022-054>056-252200-
NEBRASKA PANHANDLE

CITY           SKY/WX    TMP DP  RH WIND       PRES   REMARKS
SCOTTSBLUFF    SUNNY     37  15  40 W21G32    29.86R WCI  26
ALLIANCE       SUNNY     34  19  54 W15       29.84F WCI  24
CHADRON        SUNNY     35  16  45 W15       29.84S WCI  25
GORDON         FAIR      34  15  44 W10       29.84S WCI  26
KIMBALL        MOSUNNY   35  13  39 W23       29.86S WCI  23
SIDNEY         PTSUNNY   38   6  26 W28G36    29.88S WCI  26
$$

NEZ057>060-069>072-079>082-252200-
SOUTHWEST NEBRASKA

CITY           SKY/WX    TMP DP  RH WIND       PRES   REMARKS
NORTH PLATTE   SUNNY     40  18  41 W15       29.92S WCI  32
IMPERIAL       MOSUNNY   43  11  27 W14       29.91F
LEXINGTON      SUNNY     45  16  31 W20G25    29.94S
MCCOOK         SUNNY     46  14  27 NW18G29   29.93F
OGALLALA       SUNNY     42  15  33 W24       29.90S
$$

NEZ005>010-023>029-035>040-094-252200-
NORTH CENTRAL NEBRASKA

CITY           SKY/WX    TMP DP  RH WIND       PRES   REMARKS
VALENTINE      SUNNY     36  19  50 W14       29.87R WCI  27
AINSWORTH      SUNNY     35  20  55 W7        29.87S WCI  29
BROKEN BOW     SUNNY     36  23  59 W10       29.91S WCI  28
O`NEILL        MOSUNNY   33  22  62 SW8       29.90F WCI  27
ORD            SUNNY     40  22  48 W12       29.92R WCI  33
THEDFORD       SUNNY     38  19  47 W15       29.89S WCI  29
$$

NEZ041-046>049-061>064-073>077-083>087-252200-
SOUTH CENTRAL NEBRASKA

CITY           SKY/WX    TMP DP  RH WIND       PRES   REMARKS
GRAND ISLAND   SUNNY     46  21  36 W20       29.94R
AURORA         SUNNY     47  21  35 W21G32    29.94R
HASTINGS       SUNNY     48  12  23 W22G31    29.93F
HEBRON         SUNNY     49  16  26 SW7G17    29.99R
HOLDREGE       MOSUNNY   48  14  25 W21G32    29.92F
KEARNEY        SUNNY     47  13  25 W20G29    29.94S
YORK           SUNNY     46  25  42 W15G22    29.95R
$$

NEZ011>018-030>034-042>045-252200-
NORTHEAST NEBRASKA

CITY           SKY/WX    TMP DP  RH WIND       PRES   REMARKS
NORFOLK        SUNNY     38  22  52 S8        29.92R WCI  32
ALBION         SUNNY     42  21  44 W9G16     29.93S
BLAIR          MOSUNNY   38  25  58 SW5       29.98R WCI  35
COLUMBUS       SUNNY     39  21  48 SW9       29.97S WCI  33
FREMONT        SUNNY     39  25  58 S8        29.99S WCI  33
TEKAMAH        SUNNY     37  24  59 SW8       29.99S WCI  31
WAYNE          SUNNY     37  20  50 W7        29.95R WCI  31
$$

NEZ050>053-065>068-078-088>093-252200-
SOUTHEAST NEBRASKA

CITY           SKY/WX    TMP DP  RH WIND       PRES   REMARKS
LINCOLN        MOSUNNY   47  26  44 SW14      29.99S
OMAHA EPPLEY   PTSUNNY   41  22  46 SW8       30.00R
BEATRICE       MOSUNNY   47  28  45 SW12      30.00S
FALLS CITY     CLOUDY    46  22  38 SW13      30.03R
NEBRASKA CITY  MOSUNNY   44  32  63 SW15      30.00S
PLATTSMOUTH    CLOUDY    41  31  67 S5        30.00S
$$

NEZ044-045-051>053-067-252200-
OMAHA AREA

CITY           SKY/WX    TMP DP  RH WIND       PRES   REMARKS
OMAHA EPPLEY   PTSUNNY   41  22  46 SW8       30.00R
BLAIR          MOSUNNY   38  25  58 SW5       29.98R WCI  35
FREMONT        SUNNY     39  25  58 S8        29.99S WCI  33
MILLARD        MOSUNNY   41  26  54 SW6       30.00S
OFFUTT AFB     MOSUNNY   41  28  58 S7        30.00S
PLATTSMOUTH    CLOUDY    41  31  67 S5        30.00S
WAHOO          FAIR      41  25  53 S6        29.98S
$$




USA.gov is the U.S. government's official web portal to all federal, state and local government web resources and services.